Location: Oberkirch
(48.5323°N, 8.0787°E)
Time: 01:22:15
(UTC+00:00)

Altair - Visible Passes

Search period start: 07 February 2026 00:00
Search period end: 17 February 2026 00:00
Orbit: 1502 x 1682 km, 47.2° (Epoch: 6 February)

Date Brightness Start Highest point End Pass type
(mag) Time Alt. Az. Time Alt. Az. Time Alt. Az.
7 Feb 9.4 05:35:13 10° S 05:42:35 27° SE 05:50:09 10° E visible
8 Feb 9.4 05:10:26 10° S 05:17:30 25° SE 05:24:44 10° E visible
9 Feb 9.5 04:45:42 10° S 04:52:26 23° SE 04:59:17 10° E visible
10 Feb 9.5 04:21:02 10° S 04:27:22 21° SE 04:33:48 10° E visible
11 Feb 9.5 03:56:27 10° SSE 04:02:18 19° SE 04:08:15 10° E visible
11 Feb 8.3 05:56:22 10° SW 06:05:13 52° SSE 06:14:25 10° ENE visible
12 Feb 9.5 03:31:55 10° SSE 03:37:14 17° SE 03:42:38 10° E visible
12 Feb 8.3 05:31:19 10° SW 05:40:04 49° SSE 05:49:08 10° ENE visible
13 Feb 9.5 03:07:31 10° SSE 03:12:12 15° SE 03:16:56 10° E visible
13 Feb 8.4 05:06:17 10° SW 05:14:55 46° SE 05:23:50 10° ENE visible
14 Feb 9.5 02:43:17 10° SSE 02:47:10 13° ESE 02:51:05 10° E visible
14 Feb 8.4 04:41:16 10° SSW 04:49:47 44° SE 04:58:32 10° ENE visible
15 Feb 9.5 02:19:22 10° SE 02:22:08 12° ESE 02:24:56 10° ESE visible
15 Feb 8.4 04:16:36 11° SSW 04:24:39 41° SE 04:33:14 10° ENE visible
16 Feb 8.4 03:53:17 17° SSW 03:59:32 38° SE 04:07:56 10° ENE visible
16 Feb 7.7 05:54:05 10° WSW 06:03:19 74° SSE 06:12:55 10° E visible
